Location: Newark
(45.8667°N, 9.7333°E)
Time: 06:18:20
(UTC+00:00)

Transit 4A - Pass Details

Date: 27 January 2020
Orbit: 872 x 973 km, 66.8° (Epoch: 17 February)

Event Time Altitude Azimuth Distance (km) Brightness Sun altitude
Rises 04:36:10 0° 183° (S) 3,550 11.0 -23.1°
Reaches altitude 10° 04:38:54 10° 174° (S) 2,595 10.3 -22.6°
Maximum altitude 04:44:15 34° 111° (ESE) 1,428 9.4 -21.7°
Drops below altitude 10° 04:49:31 10° 48° (NE) 2,555 10.8 -20.8°
Sets 04:52:10 0° 40° (NE) 3,488 11.4 -20.3°
